sat.trackr.live / text

‹ back to catalog

COSMO-SKYMED 4

NORAD 37216 · 2010-060A

PAYLOAD ACTIVE UNKNOWN

§ Identity

Operator
Country
IT
Launch date
2010-11-06
Launch site
AFWTR
Launch vehicle
Mass (kg)
RCS (m²)
4.40

Purposes: earth_obs

External: N2YO · Heavens-Above · Gunter

§ Orbital elements

Epoch: 2026-05-25T05:16:57.997344Z

Period
97.16 min
Inclination
97.8892°
Eccentricity
0.0001414
Mean motion
14.82162744 rev/d
Perigee alt
621.5 km
Apogee alt
623.5 km
Semi-major
7,000.6 km
B*
6.9227e-5
RAAN
329.1531°
Arg perigee
86.5686°
Mean anomaly
273.5689°
Rev number
84,116

§ Raw data

COSMO-SKYMED 41 37216U 10060A   26145.22011571  .00000499  00000+0  69227-4 0  99942 37216  97.8892 329.1531 0001414  86.5686 273.5689 14.82162744841166

JSON: /api/v1/satellites/37216 · /tle

For live sub-satellite position, see the globe view (requires WebGL).

§ Visibility from observer

Set your observer location to see the next 7 days of passes ≥ 10°. The values pass through the URL so the page stays shareable.

No JS? Fill the form by hand. The geolocation button needs JavaScript.

§ Radio — SatNOGS DB

ModeDescriptionDownlinkUplink
FM S-band telemetry 2.244 GHz
FM S-band telemetry 2.230 GHz

2 transmitters · refreshed weekly from db.satnogs.org